QPF
0.00 0.00 0.00 0.00 0.00 0.00 0.00 0.00 0.00 0.00 0.00 0.00 0.00 0.00 0.00 0.00 0.00 0.00 0.00 0.00 0.00 0.00 0.00 0.01 0.00 0.00 0.00 0.00 0.00 0.00 0.00 0.00 0.00 0.00 0.01 0.01 0.01 0.00 0.00 0.00 0.00 0.00 0.00 0.00 0.01 0.02 0.03 0.03 0.02
0.00 0.00 0.00 0.00 0.00 0.00 0.00 0.00 0.00 0.00 0.00 0.00 0.00 0.00 0.00 0.00 0.00 0.00 0.00 0.00 0.00 0.00 0.00 0.00 0.00 0.00 0.00 0.00 0.00 0.00 0.00 0.00 0.00 0.00 0.01 0.01 0.01 0.00 0.00 0.00 0.00 0.00 0.00 0.00 0.00 0.01 0.01 0.01 0.00
0.00 0.00 0.00 0.00 0.00 0.00 0.00 0.00 0.00 0.00 0.00 0.00 0.00 0.00 0.00 0.00 0.00 0.00 0.00 0.00 0.00 0.00 0.00 0.00 0.00 0.00 0.00 0.00 0.00 0.00 0.00 0.00 0.00 0.00 0.00 0.00 0.00 0.00 0.00 0.00 0.00 0.00 0.00 0.00 0.00 0.00 0.00 0.00 0.00
0.00 0.00 0.00 0.00 0.00 0.00 0.00 0.00 0.00 0.00 0.00 0.00 0.00 0.00 0.00 0.00 0.00 0.00 0.00 0.00 0.00 0.00 0.00 0.00 0.00 0.00 0.00 0.00 0.00 0.00 0.00 0.00 0.00 0.00 0.00 0.00 0.01 0.01 0.00 0.00 0.00 0.00 0.00 0.00 0.00 0.00 0.00 0.00 0.00
0.00 0.00 0.00 0.00 0.00 0.00 0.00 0.00 0.00 0.00 0.00 0.00 0.00 0.00 0.00 0.00 0.00 0.00 0.00 0.00 0.00 0.00 0.00 0.00 0.01 0.01 0.00 0.00 0.00 0.00 0.00 0.00 0.00 0.00 0.00 0.00 0.01 0.01 0.01 0.00 0.00 0.00 0.00 0.00 0.00 0.00 0.00 0.00 0.00
0.00 0.00 0.00 0.00 0.00 0.00 0.00 0.00 0.00 0.00 0.00 0.00 0.00 0.00 0.00 0.00 0.00 0.00 0.00 0.00 0.00 0.00 0.00 0.01 0.01 0.01 0.01 0.00 0.00 0.00 0.00 0.00 0.00 0.00 0.00 0.00 0.01 0.01 0.01 0.01 0.00 0.00 0.00 0.00 0.00 0.00 0.00 0.00 0.00
0.00 0.00 0.00 0.00 0.00 0.00 0.00 0.00 0.00 0.00 0.00 0.00 0.00 0.00 0.00 0.00 0.00 0.00 0.00 0.00 0.00 0.00 0.00 0.00 0.01 0.02 0.01 0.01 0.01 0.00 0.00 0.00 0.00 0.00 0.00 0.00 0.00 0.01 0.01 0.01 0.00 0.00 0.00 0.00 0.00 0.00 0.00 0.00 0.00
0.00 0.00 0.00 0.00 0.00 0.00 0.00 0.00 0.00 0.00 0.00 0.00 0.00 0.00 0.00 0.00 0.00 0.00 0.00 0.00 0.00 0.00 0.00 0.00 0.01 0.02 0.02 0.01 0.01 0.01 0.00 0.00 0.00 0.00 0.00 0.00 0.00 0.01 0.01 0.00 0.00 0.00 0.00 0.00 0.00 0.00 0.00 0.00 0.00
0.00 0.00 0.00 0.00 0.00 0.00 0.00 0.00 0.00 0.00 0.00 0.00 0.00 0.00 0.00 0.00 0.00 0.00 0.00 0.00 0.00 0.00 0.00 0.00 0.01 0.01 0.02 0.01 0.01 0.01 0.01 0.00 0.00 0.00 0.00 0.00 0.00 0.00 0.00 0.00 0.00 0.00 0.00 0.00 0.00 0.00 0.00 0.00 0.00
0.00 0.00 0.00 0.00 0.00 0.00 0.00 0.00 0.00 0.00 0.00 0.00 0.00 0.00 0.00 0.00 0.00 0.00 0.00 0.00 0.00 0.00 0.00 0.00 0.00 0.01 0.01 0.01 0.01 0.01 0.01 0.00 0.00 0.00 0.00 0.00 0.00 0.00 0.00 0.00 0.00 0.00 0.00 0.00 0.00 0.00 0.00 0.00 0.00
0.00 0.00 0.00 0.00 0.00 0.00 0.00 0.00 0.00 0.00 0.00 0.00 0.00 0.00 0.00 0.00 0.00 0.00 0.00 0.00 0.00 0.00 0.00 0.00 0.00 0.00 0.01 0.01 0.01 0.01 0.01 0.00 0.00 0.00 0.00 0.00 0.00 0.00 0.00 0.00 0.00 0.00 0.00 0.00 0.00 0.00 0.00 0.00 0.00
0.00 0.00 0.00 0.00 0.00 0.00 0.00 0.00 0.00 0.00 0.00 0.00 0.00 0.00 0.00 0.00 0.00 0.00 0.00 0.00 0.00 0.00 0.00 0.00 0.00 0.00 0.00 0.01 0.01 0.00 0.00 0.00 0.00 0.00 0.00 0.00 0.00 0.00 0.00 0.00 0.00 0.00 0.00 0.00 0.00 0.00 0.00 0.00 0.00
0.00 0.00 0.00 0.00 0.00 0.00 0.00 0.00 0.00 0.00 0.00 0.00 0.00 0.00 0.00 0.00 0.00 0.00 0.00 0.00 0.00 0.00 0.00 0.00 0.00 0.00 0.00 0.00 0.00 0.00 0.00 0.00 0.00 0.00 0.00 0.00 0.00 0.00 0.00 0.00 0.00 0.00 0.00 0.00 0.00 0.00 0.00 0.00 0.00
0.00 0.00 0.00 0.00 0.00 0.00 0.00 0.00 0.00 0.00 0.00 0.00 0.00 0.00 0.00 0.00 0.00 0.00 0.00 0.00 0.00 0.00 0.00 0.00 0.00 0.00 0.00 0.00 0.00 0.00 0.00 0.00 0.00 0.00 0.00 0.00 0.00 0.00 0.00 0.00 0.00 0.00 0.00 0.00 0.00 0.00 0.00 0.00 0.00
0.00 0.00 0.00 0.00 0.00 0.00 0.00 0.00 0.00 0.00 0.00 0.00 0.00 0.00 0.00 0.00 0.00 0.00 0.00 0.00 0.00 0.00 0.00 0.00 0.00 0.00 0.00 0.00 0.00 0.00 0.00 0.01 0.01 0.01 0.01 0.01 0.00 0.00 0.00 0.00 0.00 0.00 0.00 0.00 0.00 0.00 0.00 0.00 0.00
0.00 0.00 0.00 0.00 0.00 0.00 0.00 0.00 0.00 0.00 0.00 0.00 0.00 0.00 0.00 0.00 0.00 0.00 0.00 0.00 0.00 0.00 0.00 0.00 0.00 0.00 0.00 0.00 0.00 0.00 0.01 0.02 0.02 0.02 0.02 0.02 0.01 0.00 0.00 0.00 0.00 0.00 0.00 0.00 0.00 0.00 0.00 0.00 0.00
0.00 0.00 0.00 0.00 0.00 0.00 0.00 0.00 0.00 0.00 0.00 0.00 0.00 0.00 0.00 0.00 0.00 0.00 0.00 0.00 0.00 0.00 0.00 0.00 0.00 0.00 0.00 0.00 0.00 0.01 0.02 0.03 0.04 0.04 0.03 0.02 0.02 0.01 0.00 0.00 0.00 0.00 0.00 0.00 0.00 0.00 0.00 0.00 0.00
0.00 0.00 0.00 0.00 0.00 0.00 0.00 0.00 0.00 0.00 0.00 0.00 0.00 0.00 0.00 0.00 0.00 0.00 0.00 0.00 0.00 0.00 0.00 0.00 0.00 0.00 0.00 0.00 0.01 0.01 0.03 0.04 0.05 0.06 0.06 0.04 0.02 0.01 0.00 0.00 0.00 0.00 0.00 0.00 0.00 0.00 0.00 0.00 0.00
0.00 0.00 0.00 0.00 0.00 0.00 0.00 0.00 0.00 0.00 0.00 0.00 0.00 0.00 0.00 0.00 0.00 0.00 0.00 0.00 0.00 0.00 0.00 0.00 0.00 0.00 0.00 0.00 0.00 0.01 0.03 0.06 0.08 0.07 0.07 0.06 0.04 0.02 0.01 0.00 0.00 0.00 0.00 0.00 0.00 0.00 0.00 0.00 0.00
0.00 0.00 0.00 0.00 0.00 0.00 0.00 0.00 0.00 0.00 0.00 0.00 0.00 0.00 0.00 0.00 0.00 0.00 0.00 0.00 0.00 0.00 0.00 0.00 0.00 0.00 0.00 0.00 0.00 0.02 0.04 0.07 0.09 0.08 0.07 0.05 0.03 0.01 0.00 0.00 0.00 0.00 0.00 0.00 0.00 0.00 0.00 0.00 0.00
0.00 0.00 0.00 0.00 0.00 0.00 0.00 0.00 0.00 0.00 0.00 0.00 0.00 0.00 0.00 0.00 0.00 0.00 0.00 0.00 0.00 0.00 0.00 0.00 0.00 0.00 0.00 0.00 0.00 0.01 0.03 0.05 0.06 0.05 0.05 0.03 0.02 0.01 0.00 0.00 0.00 0.00 0.00 0.00 0.00 0.00 0.00 0.00 0.00
0.00 0.00 0.00 0.00 0.00 0.00 0.00 0.00 0.00 0.00 0.00 0.00 0.00 0.00 0.00 0.00 0.00 0.00 0.00 0.00 0.00 0.00 0.00 0.00 0.00 0.00 0.00 0.00 0.00 0.01 0.03 0.05 0.06 0.06 0.04 0.02 0.01 0.01 0.00 0.00 0.00 0.00 0.00 0.00 0.00 0.00 0.00 0.00 0.00
0.00 0.00 0.00 0.00 0.00 0.01 0.00 0.01 0.00 0.00 0.00 0.00 0.00 0.00 0.00 0.00 0.00 0.00 0.00 0.00 0.00 0.00 0.00 0.00 0.00 0.00 0.00 0.00 0.00 0.02 0.04 0.06 0.06 0.04 0.03 0.02 0.01 0.00 0.00 0.00 0.00 0.00 0.00 0.00 0.00 0.00 0.00 0.00 0.00
0.00 0.01 0.01 0.01 0.03 0.02 0.00 0.00 0.00 0.00 0.00 0.00 0.00 0.00 0.00 0.00 0.00 0.00 0.00 0.00 0.00 0.00 0.00 0.00 0.00 0.00 0.00 0.00 0.00 0.01 0.03 0.04 0.04 0.03 0.02 0.01 0.01 0.00 0.00 0.00 0.00 0.00 0.00 0.00 0.00 0.00 0.00 0.00 0.00
0.00 0.02 0.02 0.02 0.03 0.01 0.00 0.00 0.00 0.00 0.00 0.00 0.00 0.00 0.00 0.00 0.00 0.00 0.00 0.00 0.00 0.00 0.00 0.00 0.00 0.00 0.00 0.00 0.00 0.01 0.03 0.04 0.05 0.04 0.02 0.01 0.00 0.00 0.00 0.00 0.00 0.00 0.00 0.00 0.00 0.00 0.00 0.00 0.00
0.00 0.01 0.01 0.01 0.00 0.00 0.00 0.00 0.00 0.00 0.00 0.00 0.00 0.00 0.00 0.00 0.00 0.00 0.00 0.00 0.00 0.00 0.00 0.00 0.00 0.00 0.00 0.00 0.00 0.00 0.01 0.02 0.02 0.02 0.01 0.00 0.00 0.00 0.00 0.00 0.00 0.00 0.00 0.00 0.00 0.00 0.00 0.00 0.00
0.01 0.01 0.01 0.04 0.03 0.02 0.00 0.00 0.00 0.00 0.00 0.00 0.00 0.00 0.00 0.00 0.00 0.00 0.00 0.00 0.00 0.00 0.00 0.00 0.00 0.00 0.00 0.00 0.00 0.00 0.00 0.01 0.01 0.00 0.00 0.00 0.00 0.00 0.00 0.00 0.00 0.00 0.00 0.00 0.00 0.00 0.00 0.00 0.00
0.00 0.01 0.05 0.11 0.07 0.03 0.00 0.00 0.00 0.00 0.00 0.00 0.00 0.00 0.00 0.00 0.00 0.00 0.00 0.00 0.00 0.00 0.00 0.00 0.00 0.00 0.00 0.00 0.00 0.00 0.00 0.00 0.00 0.00 0.00 0.00 0.00 0.00 0.00 0.00 0.00 0.00 0.00 0.00 0.00 0.00 0.00 0.00 0.00
0.01 0.04 0.09 0.12 0.07 0.03 0.01 0.00 0.00 0.00 0.01 0.00 0.00 0.00 0.00 0.00 0.00 0.00 0.00 0.00 0.00 0.00 0.00 0.00 0.00 0.00 0.00 0.00 0.00 0.00 0.00 0.00 0.00 0.00 0.00 0.00 0.00 0.00 0.00 0.00 0.00 0.00 0.00 0.00 0.00 0.00 0.00 0.00 0.00
0.01 0.02 0.08 0.15 0.08 0.05 0.04 0.01 0.00 0.01 0.01 0.01 0.01 0.01 0.00 0.00 0.00 0.00 0.00 0.00 0.00 0.00 0.00 0.00 0.00 0.00 0.00 0.00 0.00 0.00 0.00 0.00 0.00 0.00 0.00 0.00 0.00 0.00 0.00 0.00 0.00 0.00 0.00 0.00 0.00 0.00 0.00 0.00 0.00
MSLP
1013.32 1013.44 1013.66 1013.92 1014.15 1014.29 1014.31 1014.19 1013.94 1013.58 1013.17 1012.75 1012.35 1011.97 1011.64 1011.34 1011.08 1010.85 1010.67 1010.56 1010.56 1010.68 1010.93 1011.30 1011.76 1012.26 1012.74 1013.16 1013.49 1013.73 1013.90 1014.02 1014.15 1014.32 1014.54 1014.81 1015.09 1015.36 1015.57 1015.68 1015.69 1015.61 1015.48 1015.34 1015.23 1015.18 1015.21 1015.31 1015.45
1013.40 1013.56 1013.80 1014.06 1014.27 1014.37 1014.31 1014.10 1013.76 1013.31 1012.82 1012.33 1011.87 1011.48 1011.15 1010.87 1010.64 1010.46 1010.33 1010.28 1010.34 1010.52 1010.82 1011.25 1011.75 1012.29 1012.80 1013.25 1013.60 1013.84 1014.01 1014.12 1014.24 1014.39 1014.59 1014.84 1015.11 1015.38 1015.59 1015.72 1015.77 1015.73 1015.65 1015.56 1015.49 1015.47 1015.52 1015.63 1015.77
1013.46 1013.63 1013.87 1014.10 1014.27 1014.30 1014.18 1013.90 1013.48 1012.96 1012.42 1011.89 1011.41 1011.02 1010.69 1010.44 1010.25 1010.11 1010.04 1010.05 1010.16 1010.39 1010.75 1011.22 1011.76 1012.33 1012.87 1013.34 1013.69 1013.94 1014.10 1014.20 1014.30 1014.42 1014.60 1014.83 1015.09 1015.35 1015.57 1015.73 1015.81 1015.83 1015.80 1015.76 1015.75 1015.77 1015.84 1015.95 1016.07
1013.50 1013.66 1013.86 1014.05 1014.15 1014.13 1013.95 1013.61 1013.14 1012.60 1012.03 1011.50 1011.03 1010.64 1010.35 1010.12 1009.97 1009.88 1009.85 1009.91 1010.07 1010.34 1010.74 1011.24 1011.81 1012.40 1012.95 1013.42 1013.77 1014.02 1014.17 1014.26 1014.34 1014.45 1014.61 1014.82 1015.06 1015.32 1015.55 1015.73 1015.84 1015.91 1015.93 1015.95 1015.98 1016.04 1016.12 1016.22 1016.32
1013.54 1013.65 1013.80 1013.92 1013.96 1013.88 1013.65 1013.28 1012.80 1012.26 1011.71 1011.20 1010.76 1010.41 1010.15 1009.96 1009.84 1009.79 1009.80 1009.89 1010.08 1010.39 1010.80 1011.31 1011.89 1012.47 1013.02 1013.48 1013.84 1014.08 1014.23 1014.32 1014.39 1014.49 1014.64 1014.83 1015.07 1015.31 1015.55 1015.74 1015.89 1015.99 1016.05 1016.11 1016.17 1016.24 1016.33 1016.42 1016.48
1013.58 1013.64 1013.72 1013.77 1013.74 1013.60 1013.34 1012.96 1012.50 1011.99 1011.48 1011.02 1010.64 1010.33 1010.11 1009.96 1009.88 1009.85 1009.89 1010.00 1010.20 1010.51 1010.92 1011.42 1011.97 1012.54 1013.06 1013.51 1013.86 1014.10 1014.26 1014.36 1014.45 1014.55 1014.70 1014.89 1015.12 1015.36 1015.59 1015.79 1015.95 1016.07 1016.16 1016.24 1016.31 1016.38 1016.46 1016.52 1016.55
1013.64 1013.65 1013.66 1013.63 1013.54 1013.36 1013.07 1012.71 1012.28 1011.82 1011.37 1010.98 1010.65 1010.39 1010.21 1010.10 1010.04 1010.03 1010.07 1010.19 1010.39 1010.68 1011.06 1011.52 1012.03 1012.55 1013.04 1013.47 1013.81 1014.07 1014.25 1014.38 1014.49 1014.63 1014.79 1014.99 1015.21 1015.45 1015.67 1015.87 1016.03 1016.16 1016.26 1016.33 1016.40 1016.46 1016.51 1016.53 1016.52
1013.75 1013.69 1013.63 1013.53 1013.38 1013.17 1012.88 1012.53 1012.14 1011.74 1011.36 1011.03 1010.76 1010.55 1010.40 1010.30 1010.25 1010.25 1010.29 1010.40 1010.57 1010.83 1011.17 1011.58 1012.03 1012.50 1012.94 1013.34 1013.68 1013.95 1014.17 1014.35 1014.51 1014.68 1014.87 1015.09 1015.32 1015.55 1015.77 1015.96 1016.11 1016.24 1016.33 1016.41 1016.46 1016.50 1016.51 1016.50 1016.45
1013.88 1013.78 1013.65 1013.49 1013.29 1013.05 1012.76 1012.44 1012.09 1011.75 1011.42 1011.14 1010.90 1010.72 1010.59 1010.50 1010.45 1010.43 1010.46 1010.55 1010.69 1010.91 1011.19 1011.54 1011.93 1012.34 1012.74 1013.12 1013.45 1013.75 1014.01 1014.24 1014.46 1014.69 1014.92 1015.16 1015.40 1015.63 1015.84 1016.02 1016.17 1016.29 1016.39 1016.45 1016.50 1016.52 1016.51 1016.46 1016.39
1014.04 1013.89 1013.71 1013.50 1013.27 1013.00 1012.71 1012.41 1012.09 1011.79 1011.50 1011.25 1011.03 1010.85 1010.72 1010.61 1010.55 1010.51 1010.52 1010.58 1010.69 1010.86 1011.09 1011.38 1011.71 1012.07 1012.43 1012.79 1013.13 1013.45 1013.76 1014.05 1014.33 1014.60 1014.88 1015.14 1015.40 1015.63 1015.84 1016.02 1016.18 1016.31 1016.41 1016.49 1016.54 1016.55 1016.53 1016.46 1016.36
1014.20 1014.02 1013.80 1013.55 1013.28 1013.00 1012.71 1012.41 1012.12 1011.83 1011.56 1011.31 1011.09 1010.89 1010.73 1010.60 1010.50 1010.44 1010.42 1010.45 1010.53 1010.66 1010.86 1011.10 1011.38 1011.70 1012.03 1012.38 1012.73 1013.07 1013.42 1013.76 1014.10 1014.42 1014.74 1015.03 1015.30 1015.54 1015.77 1015.96 1016.13 1016.29 1016.42 1016.52 1016.59 1016.62 1016.60 1016.53 1016.42
1014.35 1014.15 1013.89 1013.61 1013.32 1013.02 1012.72 1012.42 1012.13 1011.84 1011.56 1011.29 1011.04 1010.81 1010.60 1010.43 1010.29 1010.20 1010.15 1010.15 1010.22 1010.33 1010.50 1010.71 1010.96 1011.25 1011.57 1011.91 1012.27 1012.64 1013.02 1013.40 1013.78 1014.15 1014.50 1014.82 1015.11 1015.37 1015.61 1015.84 1016.04 1016.24 1016.42 1016.57 1016.68 1016.73 1016.73 1016.67 1016.56
1014.48 1014.25 1013.97 1013.67 1013.35 1013.03 1012.71 1012.40 1012.09 1011.78 1011.48 1011.17 1010.88 1010.60 1010.34 1010.11 1009.93 1009.80 1009.73 1009.72 1009.77 1009.88 1010.04 1010.25 1010.49 1010.77 1011.09 1011.43 1011.79 1012.18 1012.59 1013.01 1013.42 1013.82 1014.20 1014.55 1014.86 1015.15 1015.43 1015.69 1015.94 1016.19 1016.43 1016.64 1016.80 1016.90 1016.92 1016.87 1016.77
1014.56 1014.33 1014.04 1013.71 1013.37 1013.02 1012.68 1012.34 1012.00 1011.66 1011.31 1010.96 1010.61 1010.27 1009.96 1009.69 1009.47 1009.31 1009.22 1009.20 1009.25 1009.36 1009.53 1009.74 1010.00 1010.28 1010.61 1010.96 1011.34 1011.75 1012.18 1012.62 1013.06 1013.49 1013.90 1014.28 1014.63 1014.95 1015.27 1015.58 1015.88 1016.19 1016.49 1016.75 1016.96 1017.10 1017.15 1017.12 1017.01
1014.62 1014.38 1014.08 1013.74 1013.37 1012.99 1012.61 1012.22 1011.84 1011.45 1011.05 1010.65 1010.26 1009.88 1009.52 1009.21 1008.95 1008.77 1008.66 1008.63 1008.68 1008.81 1008.99 1009.23 1009.51 1009.82 1010.16 1010.54 1010.94 1011.37 1011.82 1012.29 1012.76 1013.22 1013.66 1014.08 1014.47 1014.84 1015.20 1015.56 1015.92 1016.27 1016.61 1016.92 1017.16 1017.33 1017.40 1017.37 1017.26
1014.66 1014.43 1014.12 1013.76 1013.35 1012.93 1012.49 1012.05 1011.60 1011.16 1010.71 1010.27 1009.84 1009.42 1009.04 1008.70 1008.43 1008.22 1008.10 1008.07 1008.12 1008.26 1008.46 1008.72 1009.03 1009.38 1009.76 1010.17 1010.60 1011.06 1011.55 1012.05 1012.55 1013.05 1013.54 1014.00 1014.45 1014.87 1015.27 1015.67 1016.07 1016.45 1016.81 1017.14 1017.40 1017.57 1017.64 1017.61 1017.49
1014.71 1014.48 1014.17 1013.78 1013.34 1012.85 1012.34 1011.81 1011.29 1010.78 1010.28 1009.80 1009.35 1008.92 1008.54 1008.19 1007.91 1007.70 1007.57 1007.53 1007.58 1007.72 1007.94 1008.23 1008.58 1008.97 1009.40 1009.86 1010.34 1010.85 1011.37 1011.92 1012.47 1013.02 1013.56 1014.08 1014.58 1015.05 1015.50 1015.93 1016.34 1016.73 1017.09 1017.40 1017.65 1017.80 1017.86 1017.82 1017.69
1014.75 1014.55 1014.23 1013.82 1013.32 1012.75 1012.14 1011.51 1010.89 1010.30 1009.75 1009.24 1008.78 1008.36 1007.99 1007.66 1007.39 1007.18 1007.05 1007.00 1007.05 1007.19 1007.43 1007.75 1008.14 1008.58 1009.07 1009.59 1010.14 1010.70 1011.29 1011.90 1012.51 1013.12 1013.72 1014.31 1014.86 1015.38 1015.86 1016.30 1016.71 1017.08 1017.41 1017.69 1017.90 1018.03 1018.06 1018.01 1017.87
1014.81 1014.63 1014.32 1013.86 1013.29 1012.61 1011.88 1011.12 1010.39 1009.70 1009.09 1008.56 1008.10 1007.71 1007.38 1007.09 1006.84 1006.65 1006.52 1006.46 1006.50 1006.65 1006.89 1007.24 1007.68 1008.19 1008.75 1009.35 1009.98 1010.62 1011.29 1011.96 1012.65 1013.32 1013.99 1014.63 1015.23 1015.79 1016.29 1016.74 1017.13 1017.47 1017.75 1017.98 1018.14 1018.24 1018.25 1018.19 1018.06
1014.88 1014.73 1014.41 1013.91 1013.24 1012.44 1011.55 1010.65 1009.77 1008.98 1008.30 1007.74 1007.30 1006.95 1006.67 1006.43 1006.23 1006.06 1005.94 1005.88 1005.92 1006.06 1006.32 1006.70 1007.20 1007.78 1008.43 1009.12 1009.85 1010.59 1011.33 1012.09 1012.84 1013.58 1014.31 1015.00 1015.64 1016.23 1016.74 1017.18 1017.54 1017.84 1018.08 1018.25 1018.37 1018.44 1018.44 1018.39 1018.28
1014.93 1014.81 1014.48 1013.93 1013.15 1012.21 1011.16 1010.08 1009.05 1008.13 1007.38 1006.79 1006.36 1006.05 1005.83 1005.66 1005.51 1005.38 1005.28 1005.23 1005.27 1005.42 1005.70 1006.12 1006.68 1007.34 1008.09 1008.89 1009.72 1010.56 1011.40 1012.23 1013.04 1013.84 1014.61 1015.34 1016.01 1016.61 1017.13 1017.56 1017.90 1018.16 1018.36 1018.50 1018.59 1018.64 1018.66 1018.63 1018.55
1014.96 1014.87 1014.52 1013.90 1013.02 1011.93 1010.70 1009.44 1008.25 1007.21 1006.37 1005.74 1005.32 1005.05 1004.89 1004.78 1004.70 1004.61 1004.54 1004.51 1004.55 1004.72 1005.03 1005.51 1006.13 1006.89 1007.74 1008.66 1009.59 1010.53 1011.46 1012.35 1013.22 1014.05 1014.85 1015.60 1016.28 1016.89 1017.41 1017.83 1018.16 1018.41 1018.58 1018.71 1018.80 1018.86 1018.90 1018.91 1018.88
1014.93 1014.86 1014.50 1013.82 1012.83 1011.59 1010.20 1008.77 1007.42 1006.25 1005.33 1004.66 1004.23 1004.00 1003.89 1003.84 1003.81 1003.77 1003.73 1003.73 1003.80 1003.99 1004.34 1004.88 1005.58 1006.44 1007.40 1008.42 1009.47 1010.49 1011.49 1012.44 1013.34 1014.19 1015.00 1015.75 1016.44 1017.05 1017.57 1018.00 1018.33 1018.58 1018.76 1018.89 1019.00 1019.09 1019.16 1019.22 1019.25
1014.83 1014.78 1014.40 1013.66 1012.58 1011.22 1009.69 1008.11 1006.62 1005.34 1004.33 1003.62 1003.18 1002.97 1002.89 1002.89 1002.91 1002.92 1002.92 1002.95 1003.05 1003.28 1003.69 1004.28 1005.07 1006.02 1007.08 1008.21 1009.34 1010.45 1011.50 1012.49 1013.40 1014.26 1015.06 1015.80 1016.49 1017.10 1017.63 1018.07 1018.43 1018.70 1018.90 1019.06 1019.20 1019.32 1019.43 1019.54 1019.61
1014.64 1014.58 1014.18 1013.40 1012.25 1010.81 1009.18 1007.50 1005.91 1004.54 1003.47 1002.71 1002.26 1002.05 1002.00 1002.03 1002.09 1002.14 1002.18 1002.24 1002.39 1002.67 1003.12 1003.79 1004.65 1005.68 1006.83 1008.04 1009.24 1010.40 1011.50 1012.50 1013.42 1014.27 1015.06 1015.79 1016.47 1017.09 1017.64 1018.10 1018.49 1018.79 1019.03 1019.23 1019.39 1019.54 1019.68 1019.81 1019.92
1014.33 1014.26 1013.84 1013.03 1011.85 1010.37 1008.69 1006.95 1005.31 1003.90 1002.78 1002.00 1001.53 1001.32 1001.28 1001.34 1001.43 1001.51 1001.59 1001.69 1001.88 1002.21 1002.72 1003.44 1004.37 1005.47 1006.68 1007.94 1009.20 1010.39 1011.50 1012.51 1013.42 1014.26 1015.03 1015.75 1016.43 1017.06 1017.63 1018.13 1018.55 1018.89 1019.17 1019.39 1019.57 1019.73 1019.87 1020.00 1020.11
1013.87 1013.77 1013.34 1012.53 1011.35 1009.87 1008.20 1006.47 1004.84 1003.42 1002.30 1001.51 1001.04 1000.83 1000.80 1000.87 1000.98 1001.10 1001.22 1001.37 1001.61 1001.99 1002.55 1003.32 1004.29 1005.43 1006.67 1007.96 1009.23 1010.43 1011.54 1012.54 1013.44 1014.27 1015.03 1015.75 1016.44 1017.08 1017.67 1018.20 1018.65 1019.02 1019.32 1019.54 1019.72 1019.86 1019.98 1020.08 1020.15
1013.25 1013.12 1012.67 1011.87 1010.73 1009.30 1007.69 1006.03 1004.44 1003.07 1001.99 1001.22 1000.77 1000.57 1000.55 1000.64 1000.78 1000.94 1001.11 1001.31 1001.61 1002.04 1002.64 1003.45 1004.44 1005.59 1006.84 1008.12 1009.38 1010.56 1011.65 1012.64 1013.52 1014.33 1015.09 1015.82 1016.51 1017.18 1017.79 1018.34 1018.81 1019.19 1019.47 1019.68 1019.82 1019.91 1019.97 1020.01 1020.03
1012.46 1012.28 1011.81 1011.03 1009.95 1008.60 1007.09 1005.54 1004.07 1002.79 1001.78 1001.08 1000.66 1000.49 1000.50 1000.63 1000.82 1001.03 1001.25 1001.53 1001.88 1002.37 1003.01 1003.84 1004.83 1005.97 1007.19 1008.44 1009.66 1010.81 1011.86 1012.82 1013.69 1014.50 1015.26 1015.99 1016.69 1017.37 1018.00 1018.55 1019.01 1019.37 1019.63 1019.78 1019.86 1019.87 1019.86 1019.82 1019.77
1011.51 1011.26 1010.77 1010.01 1008.99 1007.75 1006.37 1004.96 1003.64 1002.49 1001.60 1000.98 1000.64 1000.53 1000.60 1000.78 1001.03 1001.31 1001.62 1001.97 1002.40 1002.94 1003.62 1004.46 1005.44 1006.54 1007.71 1008.90 1010.07 1011.17 1012.18 1013.11 1013.96 1014.76 1015.52 1016.26 1016.97 1017.65 1018.27 1018.81 1019.25 1019.56 1019.76 1019.84 1019.83 1019.76 1019.65 1019.53 1019.41
Thickness
5709 5715 5720 5718 5710 5705 5707 5717 5722 5724 5732 5742 5743 5744 5747 5750 5748 5745 5759 5765 5763 5759 5754 5746 5743 5740 5738 5736 5734 5732 5731 5729 5728 5726 5725 5722 5720 5718 5717 5716 5715 5714 5714 5714 5715 5715 5715 5714 5713
5706 5711 5711 5707 5696 5695 5705 5717 5716 5723 5731 5738 5741 5742 5743 5749 5756 5756 5757 5757 5757 5755 5750 5744 5738 5736 5733 5731 5730 5728 5726 5725 5724 5723 5721 5719 5717 5715 5713 5712 5711 5710 5710 5709 5709 5709 5709 5708 5708
5702 5705 5700 5695 5692 5697 5704 5714 5718 5722 5730 5732 5736 5741 5743 5746 5752 5754 5757 5754 5753 5750 5746 5741 5734 5731 5729 5727 5725 5724 5722 5721 5720 5719 5717 5715 5713 5712 5710 5708 5707 5706 5705 5705 5704 5704 5703 5703 5702
5697 5695 5692 5688 5691 5703 5708 5714 5715 5716 5725 5730 5731 5735 5743 5747 5750 5753 5752 5750 5749 5746 5743 5736 5731 5727 5725 5722 5721 5719 5718 5717 5716 5715 5713 5711 5710 5708 5706 5705 5703 5702 5701 5700 5700 5699 5699 5698 5697
5691 5686 5679 5682 5694 5704 5707 5710 5708 5709 5715 5724 5726 5728 5736 5745 5748 5749 5748 5746 5744 5742 5739 5733 5726 5723 5720 5718 5716 5715 5714 5713 5711 5710 5709 5708 5706 5705 5703 5701 5699 5698 5697 5696 5695 5695 5694 5694 5693
5679 5680 5674 5681 5695 5701 5702 5704 5704 5706 5712 5718 5721 5723 5733 5741 5742 5742 5743 5741 5741 5737 5734 5729 5722 5719 5716 5714 5712 5711 5709 5708 5707 5706 5705 5704 5702 5701 5699 5697 5695 5694 5693 5692 5691 5691 5690 5690 5689
5673 5672 5675 5685 5692 5695 5697 5699 5701 5704 5706 5713 5720 5718 5730 5735 5737 5737 5737 5736 5735 5733 5730 5725 5720 5715 5713 5711 5709 5707 5705 5703 5702 5701 5700 5699 5698 5697 5695 5693 5691 5690 5689 5688 5687 5687 5686 5686 5685
5674 5670 5671 5679 5683 5688 5695 5694 5699 5700 5705 5714 5716 5714 5721 5727 5730 5730 5728 5728 5727 5726 5724 5722 5718 5714 5710 5708 5706 5703 5701 5699 5697 5696 5695 5694 5693 5692 5690 5689 5687 5686 5685 5684 5683 5683 5682 5681 5680
5663 5659 5667 5676 5677 5684 5687 5686 5693 5699 5702 5706 5712 5715 5716 5719 5722 5720 5718 5718 5717 5717 5718 5718 5716 5712 5709 5706 5703 5700 5697 5694 5693 5691 5690 5689 5690 5689 5687 5684 5683 5681 5680 5679 5678 5677 5677 5676 5674
5653 5655 5668 5676 5676 5679 5679 5680 5684 5689 5692 5698 5703 5708 5711 5712 5713 5713 5714 5714 5712 5712 5712 5714 5713 5710 5707 5703 5700 5698 5695 5692 5691 5690 5687 5686 5686 5684 5682 5679 5678 5677 5676 5675 5673 5672 5671 5671 5671
5648 5654 5663 5661 5666 5669 5670 5673 5677 5678 5682 5693 5696 5699 5703 5704 5706 5708 5712 5714 5714 5713 5710 5710 5709 5707 5705 5702 5698 5696 5693 5691 5688 5686 5684 5682 5680 5679 5678 5677 5675 5673 5672 5672 5669 5668 5667 5666 5664
5640 5646 5648 5653 5655 5658 5662 5667 5669 5672 5681 5692 5691 5692 5695 5698 5702 5704 5707 5710 5712 5711 5709 5708 5706 5705 5703 5701 5698 5695 5692 5689 5686 5683 5680 5678 5676 5675 5675 5673 5671 5669 5668 5666 5664 5662 5660 5659 5657
5631 5637 5640 5643 5645 5649 5652 5657 5660 5667 5678 5682 5684 5685 5689 5694 5699 5703 5705 5707 5707 5707 5707 5706 5704 5703 5700 5698 5696 5694 5691 5688 5684 5680 5676 5674 5673 5672 5670 5668 5664 5663 5661 5659 5657 5655 5653 5652 5650
5626 5629 5632 5635 5639 5644 5645 5652 5654 5667 5672 5673 5675 5679 5686 5690 5695 5697 5700 5702 5704 5704 5704 5704 5702 5701 5699 5696 5694 5692 5689 5686 5683 5678 5674 5671 5669 5667 5664 5661 5657 5655 5653 5651 5649 5647 5645 5643 5642
5616 5618 5626 5632 5634 5640 5639 5647 5656 5668 5667 5667 5670 5676 5681 5686 5690 5693 5697 5699 5701 5703 5703 5701 5699 5698 5696 5694 5691 5689 5686 5684 5680 5676 5672 5668 5665 5661 5658 5655 5651 5647 5645 5642 5640 5638 5637 5635 5633
5607 5610 5617 5628 5629 5634 5630 5646 5662 5665 5662 5663 5667 5672 5675 5680 5685 5691 5695 5697 5699 5699 5698 5698 5696 5695 5693 5690 5687 5685 5683 5681 5677 5673 5668 5664 5660 5656 5651 5647 5643 5640 5637 5634 5632 5631 5629 5626 5626
5600 5609 5614 5619 5624 5627 5628 5641 5653 5654 5653 5656 5661 5665 5668 5673 5679 5686 5691 5693 5695 5696 5696 5694 5692 5691 5689 5685 5682 5680 5678 5676 5672 5667 5663 5658 5653 5648 5644 5640 5635 5632 5629 5626 5623 5621 5620 5618 5616
5605 5605 5605 5609 5617 5616 5622 5635 5643 5646 5647 5651 5655 5659 5661 5665 5672 5679 5684 5688 5689 5691 5692 5692 5690 5688 5685 5680 5676 5672 5671 5668 5664 5660 5655 5650 5645 5641 5636 5631 5627 5623 5620 5617 5614 5611 5609 5607 5606
5591 5593 5597 5602 5605 5603 5616 5629 5636 5640 5643 5646 5650 5653 5657 5662 5669 5673 5677 5681 5683 5684 5686 5687 5686 5684 5680 5675 5670 5665 5661 5657 5653 5649 5646 5641 5636 5632 5628 5623 5618 5615 5612 5609 5607 5604 5601 5598 5596
5577 5579 5585 5590 5592 5591 5607 5624 5634 5638 5642 5645 5647 5651 5654 5658 5663 5668 5672 5675 5678 5680 5682 5683 5683 5681 5677 5672 5667 5661 5654 5646 5642 5638 5634 5630 5627 5623 5619 5615 5610 5606 5602 5600 5597 5594 5592 5587 5584
5570 5572 5576 5576 5580 5584 5588 5620 5643 5649 5647 5645 5645 5647 5651 5655 5659 5665 5669 5673 5674 5676 5679 5679 5679 5677 5672 5668 5660 5651 5642 5634 5629 5625 5622 5619 5617 5613 5610 5606 5601 5597 5594 5590 5586 5583 5581 5578 5573
5564 5567 5563 5561 5561 5572 5574 5588 5637 5638 5636 5635 5636 5639 5644 5650 5654 5659 5665 5670 5671 5673 5674 5674 5673 5671 5667 5662 5656 5651 5645 5636 5627 5619 5613 5609 5606 5603 5599 5596 5592 5588 5583 5579 5575 5571 5569 5565 5563
5558 5555 5553 5552 5550 5552 5565 5557 5617 5626 5624 5626 5629 5631 5636 5641 5647 5653 5658 5664 5667 5667 5666 5666 5665 5663 5660 5656 5652 5648 5642 5631 5619 5610 5604 5600 5596 5593 5589 5586 5582 5578 5573 5569 5564 5560 5556 5553 5549
5547 5543 5542 5541 5535 5541 5572 5560 5602 5626 5621 5619 5620 5623 5626 5631 5637 5645 5651 5655 5659 5659 5657 5657 5657 5655 5652 5649 5646 5643 5634 5623 5612 5604 5597 5591 5587 5583 5579 5576 5572 5568 5563 5558 5553 5549 5544 5540 5535
5536 5531 5536 5536 5532 5550 5569 5560 5591 5614 5605 5601 5602 5608 5614 5620 5626 5635 5642 5647 5650 5651 5650 5650 5650 5648 5645 5643 5640 5634 5625 5618 5610 5601 5593 5587 5581 5576 5571 5567 5563 5557 5552 5546 5542 5537 5532 5527 5523
5532 5530 5533 5538 5551 5561 5556 5556 5589 5599 5592 5586 5587 5592 5598 5606 5614 5623 5633 5639 5642 5643 5643 5644 5645 5642 5639 5636 5631 5623 5615 5609 5601 5594 5588 5582 5576 5570 5563 5558 5553 5547 5541 5535 5530 5526 5521 5516 5512
5526 5522 5529 5524 5528 5528 5549 5566 5581 5583 5575 5571 5573 5576 5583 5591 5602 5611 5622 5630 5634 5635 5637 5640 5639 5635 5631 5627 5621 5613 5605 5599 5593 5586 5580 5574 5567 5560 5553 5548 5542 5536 5530 5525 5519 5516 5511 5506 5501
5529 5525 5513 5502 5512 5529 5553 5563 5570 5574 5565 5561 5561 5564 5569 5577 5588 5600 5611 5619 5624 5627 5629 5630 5629 5626 5622 5617 5611 5604 5596 5589 5584 5579 5572 5565 5558 5550 5544 5538 5532 5526 5520 5515 5510 5505 5499 5495 5490
5516 5508 5506 5509 5511 5516 5535 5562 5573 5563 5554 5550 5550 5551 5556 5563 5575 5587 5598 5608 5612 5615 5617 5618 5617 5613 5609 5605 5599 5593 5586 5579 5575 5569 5563 5556 5548 5541 5534 5528 5522 5516 5510 5505 5500 5495 5489 5484 5479
5529 5524 5512 5504 5512 5512 5516 5548 5564 5553 5544 5539 5538 5540 5545 5552 5561 5574 5585 5594 5598 5601 5604 5606 5605 5601 5597 5593 5588 5583 5576 5571 5565 5559 5552 5545 5538 5530 5524 5518 5512 5506 5499 5494 5489 5484 5478 5473 5468